Tracking 34305 objects as of 7-Jun-2026
HD Live streaming from Space Station
objects crossing your sky now

FALCON 9 R/B

Track FALCON 9 R/B now!
10-day predictions


NORAD ID: 42433
Int'l Code: 2017-017B
Perigee: 241.2 km
Apogee: 27,013.1 km
Inclination: 25.8 °
Period: 469.1 minutes
Semi major axis: 19998 km
RCS: Unknown
Launch date: March 30, 2017
Source: United States (US)
Launch site: AIR FORCE EASTERN TEST RANGE (AFETR)

Note: This is a ROCKET BODY
Your satellite tracking list
Your tracking list is empty




NASA's NSSDC Master Catalog

Two Line Element Set (TLE):
1 42433U 17017B   26157.49627141  .00009445  00000-0  11751-2 0  9996
2 42433  25.8379 257.6540 6693595 253.1668  28.1810  3.06985937 89899
Source of the keplerian elements: AFSPC